Regional Weather Roundup
Issued by NWS

Home | Current Version | Previous Version | Text Only | Print | Product List | Glossary Off
Versions: 1 2 3 4 5 6 7 8 9 10 11 12 13 14 15 16 17 18 19 20 21 22 23 24 25 26 27 28 29 30 31 32 33 34 35 36 37 38 39 40 41 42 43 44 45 46 47 48 49 50

000
ASUS43 KLMK 260502
RWRKY
KENTUCKY REGIONAL WEATHER ROUNDUP
NATIONAL WEATHER SERVICE LOUISVILLE KY
100 AM EDT TUE MAY 26 2015

NOTE "FAIR" INDICATES FEW OR NO CLOUDS BELOW 12,000 FEET
WITH NO SIGNIFICANT WEATHER AND/OR OBSTRUCTIONS TO VISIBILITY.

KYZ001>023-026-027-061>063-070>075-260600-
WESTERN AND SOUTH CENTRAL KENTUCKY

CITY           SKY/WX    TMP DP  RH WIND       PRES   REMARKS
PADUCAH        MOCLDY    70  67  90 SE9       30.01F
HENDERSON      MOCLDY    68  64  88 SE9       30.04F
OWENSBORO      MOCLDY    69  68  97 S10       30.07F
HOPKINSVILLE   MOCLDY    68  67  95 SE7       30.07F
BOWLING GREEN  MOCLDY    65  63  93 CALM      30.11F
GLASGOW        NOT AVBL
$$

KYZ024-025-028>034-038-045-046-053-260600-
NORTH CENTRAL KENTUCKY

CITY           SKY/WX    TMP DP  RH WIND       PRES   REMARKS
LOUISVILLE/SDF CLOUDY    70  65  84 S8        30.12R
LOUISVILLE/LOU PTCLDY    69  65  86 S5        30.12S
FORT KNOX      MOCLDY    66  64  94 SE6       30.10F
$$

KYZ035>037-039>044-047>052-055>060-089>105-260600-
NORTHEAST KENTUCKY

CITY           SKY/WX    TMP DP  RH WIND       PRES   REMARKS
LEXINGTON      CLEAR     65  64  97 S7        30.15S
COVINGTON      MOCLDY    68  63  84 S6        30.12F
FRANKFORT      CLEAR     67  63  87 S6        30.13S
$$

KYZ054-064>069-076>088-106>120-260600-
SOUTHEAST KENTUCKY

CITY           SKY/WX    TMP DP  RH WIND       PRES   REMARKS
JACKSON        CLOUDY    71  63  75 CALM      30.19R
LONDON         LGT RAIN  71  62  73 W6        30.19R
SOMERSET       NOT AVBL
MIDDLESBORO    NOT AVBL
MONTICELLO     MOCLDY    69  65  87 SE3       30.19F
$$



USA.gov is the U.S. government's official web portal to all federal, state and local government web resources and services.